Torna al catalogo

STARLINK-3637

AttivoComunicazioniVLEO
NORAD 51799·PAYLOAD·🇺🇸 United States

Lanciato Feb 25, 2022 da Vandenberg Space Force Base

Loading…

Prossimi Passaggi (prossime 24 ore)

TLE

AggiornatoSource: CelesTrak SupGP

Epoca: Sep 14, 2026, 13:14 UTC

1 51799C 22017AH  26257.55187500 -.00058817  00000+0 -17380-2 0  2574
2 51799  53.1577 205.8681 0001257  85.7268   8.0774 15.34414881    18

Traccia STARLINK-3637 in tempo reale con AllMySat

Download on the App Store